TimeEST,TemperatureF,Dew PointF,Humidity,Sea Level PressureIn,VisibilityMPH,Wind Direction,Wind SpeedMPH,Gust SpeedMPH,PrecipitationIn,Events,Conditions,WindDirDegrees,DateUTC
12:00 AM,69.8,66.2,88,30.07,6.2,East,4.6,-,N/A,,Partly Cloudy,90,2014-01-28 05:00:00
1:00 AM,70,69,97,30.06,9,East,4.6,,,,Scattered Clouds,90,2014-01-28 06:00:00
1:00 AM,69.8,69.8,100,30.06,6.2,East,4.6,-,N/A,,Partly Cloudy,90,2014-01-28 06:00:00
2:00 AM,69.8,66.2,88,30.05,6.2,Calm,Calm,-,N/A,,Partly Cloudy,0,2014-01-28 07:00:00
3:00 AM,69.8,66.2,88,30.04,-9999.0,Calm,Calm,-,N/A,,Partly Cloudy,0,2014-01-28 08:00:00
4:00 AM,68,68,100,30.03,6,Calm,Calm,,,,,,2014-01-28 09:00:00
4:00 AM,68.0,68.0,100,30.03,5.6,Calm,Calm,-,N/A,Fog,Fog,0,2014-01-28 09:00:00
5:00 AM,69.8,66.2,88,30.03,5.0,Calm,Calm,-,N/A,Fog,Fog,0,2014-01-28 10:00:00
6:00 AM,69.8,66.2,88,30.03,3.7,Calm,Calm,-,N/A,Fog,Fog,0,2014-01-28 11:00:00
7:00 AM,65,65,99,30.06,4,Calm,Calm,,,Fog,Patches of Fog,,2014-01-28 12:00:00
7:00 AM,64.4,64.4,100,30.06,3.7,Calm,Calm,-,N/A,Fog,Fog,0,2014-01-28 12:00:00
8:00 AM,68.0,64.4,88,30.08,6.2,Calm,Calm,-,N/A,,Partly Cloudy,0,2014-01-28 13:00:00
9:00 AM,75.2,69.8,83,30.09,6.2,SE,3.5,-,N/A,,Partly Cloudy,140,2014-01-28 14:00:00
10:00 AM,80,75,81,30.09,7,SSE,9.2,,,,Partly Cloudy,160,2014-01-28 15:00:00
10:00 AM,78.8,73.4,83,30.11,6.2,Calm,Calm,-,N/A,,Partly Cloudy,0,2014-01-28 15:00:00
11:00 AM,78.8,68.0,69,30.10,6.2,ESE,4.6,-,N/A,,Partly Cloudy,120,2014-01-28 16:00:00
12:00 PM,80.6,66.2,61,30.09,6.2,South,3.5,-,N/A,,Partly Cloudy,180,2014-01-28 17:00:00
1:00 PM,83,72,62,30.06,9,NNW,1.2,,,,Scattered Clouds,340,2014-01-28 18:00:00
1:00 PM,82.4,71.6,70,30.06,6.2,Variable,1.2,-,N/A,,Partly Cloudy,0,2014-01-28 18:00:00
2:00 PM,77.0,69.8,78,30.04,6.2,North,6.9,-,N/A,,Partly Cloudy,360,2014-01-28 19:00:00
3:00 PM,77.0,69.8,78,30.01,-9999.0,NNE,4.6,-,N/A,,Mostly Cloudy,20,2014-01-28 20:00:00
4:00 PM,78,72,77,30.02,9,NNE,6.9,,,,Partly Cloudy,20,2014-01-28 21:00:00
4:00 PM,77.0,71.6,83,30.01,6.2,NNE,6.9,-,N/A,,Scattered Clouds,20,2014-01-28 21:00:00
5:00 PM,78.8,68.0,69,30.02,6.2,Variable,5.8,-,N/A,,Partly Cloudy,0,2014-01-28 22:00:00
6:00 PM,75.2,69.8,83,30.02,6.2,SE,5.8,-,N/A,,Partly Cloudy,140,2014-01-28 23:00:00
7:00 PM,75,73,90,30.04,9,ESE,4.6,,,,Scattered Clouds,120,2014-01-29 00:00:00
7:00 PM,75.2,73.4,94,30.03,6.2,Variable,4.6,-,N/A,,Partly Cloudy,0,2014-01-29 00:00:00
8:00 PM,73.4,69.8,88,30.05,6.2,East,2.3,-,N/A,,Partly Cloudy,90,2014-01-29 01:00:00
9:00 PM,73.4,69.8,88,30.05,6.2,ESE,3.5,-,N/A,,Partly Cloudy,110,2014-01-29 02:00:00
10:00 PM,73,72,96,30.06,9,Calm,Calm,,,,Scattered Clouds,,2014-01-29 03:00:00
10:00 PM,73.4,71.6,94,30.05,6.2,Calm,Calm,-,N/A,,Partly Cloudy,0,2014-01-29 03:00:00
11:00 PM,71.6,69.8,94,30.07,6.2,Calm,Calm,-,N/A,,Partly Cloudy,0,2014-01-29 04:00:00